Location: Milton
(43.5183°N, 79.8775°W)
Time: 16:36:17
(UTC+00:00)

NOAA 15 - Pass Details

Date: 05 April 2023
Orbit: 796 x 811 km, 98.6° (Epoch: 29 May)

Event Time Altitude Azimuth Distance (km) Brightness Sun altitude
Rises 01:31:17 0° 209° (SSW) 3,319 7.8 -18.3°
Reaches altitude 10° 01:34:25 10° 228° (SW) 2,391 7.3 -18.8°
Maximum altitude 01:37:51 17° 269° (W) 1,929 7.3 -19.3°
Drops below altitude 10° 01:41:18 10° 310° (NW) 2,398 8.2 -19.9°
Sets 01:44:28 0° 330° (NNW) 3,332 8.8 -20.4°
